Tracking 20083 objects as of 9-Dec-2019
HD Live streaming from Space Station
objects crossing your sky now

FENGYUN 1C DEB

Track FENGYUN 1C DEB now!
10-day predictions


NORAD ID: 38502
Int'l Code: 1999-025ESM
Perigee: 834.6 km
Apogee: 896.0 km
Inclination: 99.2 °
Period: 102.1 minutes
Semi major axis: 7236 km
RCS: 0.008 m2 (small)
Launch date: May 10, 1999
Source: People's Republic of China (PRC)
Launch site: Taiyaun Space Center, China (TSC)

Note: This is SATELLITE DEBRIS
aabbcc
Your satellite tracking list
Your tracking list is empty




NASA's NSSDC Master Catalog

Two Line Element Set (TLE):
1 38502U 99025ESM 19340.16463257 +.00000522 +00000-0 +31740-3 0  9991
2 38502 099.1722 105.6114 0042380 082.5324 041.2324 14.10351231306241
Source of the keplerian elements: AFSPC